H-2A R/B

Last updated on Mon Sep 21 2026 00:02:09 GMT+0000 (Coordinated Universal Time)

1 43682U 18084L 26263.47722078 .00017879 00000+0 33373-3 0 9993 2 43682 98.8409 163.3951 0022679 65.7110 294.6502 15.48590187435858
UTC large
Height (km)
Speed (km/s)
/
Latitude / Longitude
Inclination (degrees)
Orbital Period (minutes)
Azimuth
Elevation
Range (km)
Doppler Factor

Next 0 passes for location: London (51.5072 / 0.1276)

No passes found over London.
H-2A R/B